FW6883 Weather Reports


Display with metric or nautical units.
time (UTC)temp
F
wind
direction
speed
MPH
gust
MPH
rain 1hr
in
rain 24hr
in
rain mn
in
humidity
%
barometer
mb
20260831210026 70 84 6.0 13.0 0.00 0.00 0.00 36 1005.9
20260831204522 70 89 4.0 14.0 0.00 0.00 0.00 37 1005.6
20260831203020 70 75 3.0 9.0 0.00 0.00 0.00 39 1005.6
20260831201514 70 25 3.0 10.0 0.00 0.00 0.00 45 1005.5
20260831200019 68 65 4.0 14.0 0.00 0.00 0.00 48 1005.4
20260831194509 68 40 2.0 10.0 0.00 0.00 0.00 49 1005.5
20260831193010 67 59 4.0 11.0 0.00 0.00 0.00 51 1005.6
20260831191504 68 37 4.0 9.0 0.00 0.00 0.00 50 1005.6
20260831190107 68 80 3.0 8.0 0.00 0.00 0.00 52 1005.8
20260831190001 68 38 3.0 11.0 0.00 0.00 0.00 52 1005.9
20260831184559 67 103 3.0 9.0 0.00 0.00 0.00 54 1005.8
20260831183055 66 109 1.0 10.0 0.00 0.00 0.00 55 1005.6
20260831181553 67 55 5.0 13.0 0.00 0.00 0.00 54 1005.6
20260831180050 66 67 3.0 9.0 0.00 0.00 0.00 55 1005.6
20260831174548 66 104 1.0 5.0 0.00 0.00 0.00 55 1005.6
20260831173046 66 103 2.0 7.0 0.00 0.00 0.00 54 1005.6
20260831171545 66 76 5.0 7.0 0.00 0.00 0.00 52 1005.6
20260831170037 65 82 4.0 8.0 0.00 0.00 0.00 50 1005.2
20260831164535 66 76 2.0 7.0 0.00 0.00 0.00 49 1005.2
20260831163038 66 190 2.0 5.0 0.00 0.00 0.00 47 1005.0
20260831161530 65 103 1.0 7.0 0.00 0.00 0.00 50 1004.8
20260831160026 65 101 2.0 4.0 0.00 0.00 0.00 50 1005.0
20260831154530 65 110 0.0 5.0 0.00 0.00 0.00 52 1004.9
20260831153024 64 93 0.0 4.0 0.00 0.00 0.00 53 1004.8
20260831151514 64 103 2.0 5.0 0.00 0.00 0.00 51 1004.6
20260831150012 63 103 2.0 4.0 0.00 0.00 0.00 52 1004.5
20260831144507 62 112 2.0 5.0 0.00 0.00 0.00 52 1004.7
20260831143003 61 98 0.0 3.0 0.00 0.00 0.00 53 1004.4
20260831141501 61 120 1.0 3.0 0.00 0.00 0.00 52 1004.2
20260831140100 60 101 1.0 4.0 0.00 0.00 0.00 53 1004.1
20260831140001 60 122 0.0 3.0 0.00 0.00 0.00 53 1004.1
20260831134559 60 162 2.0 3.0 0.00 0.00 0.00 53 1003.8
20260831133102 59 124 0.0 3.0 0.00 0.00 0.00 53 1003.6
20260831131603 59 105 1.0 4.0 0.00 0.00 0.00 53 1003.7
20260831130053 59 150 0.0 3.0 0.00 0.00 0.00 53 1003.8
20260831124556 59 133 0.0 4.0 0.00 0.00 0.00 49 1003.4
20260831123054 59 151 0.0 3.0 0.00 0.00 0.00 44 1003.4
20260831121549 59 130 0.0 3.0 0.00 0.00 0.00 45 1003.6
20260831120046 59 122 1.0 5.0 0.00 0.00 0.00 46 1003.4
20260831114551 58 136 1.0 3.0 0.00 0.00 0.00 47 1003.3
20260831113140 59 165 1.0 3.0 0.00 0.00 0.00 44 1003.3
20260831111537 58 162 1.0 3.0 0.00 0.00 0.00 45 1003.4
20260831110035 59 100 0.0 7.0 0.00 0.00 0.00 46 1003.3
20260831104540 59 134 0.0 2.0 0.00 0.00 0.00 50 1003.3
20260831103028 59 134 0.0 3.0 0.00 0.00 0.00 50 1003.3
20260831101525 60 122 2.0 4.0 0.00 0.00 0.00 49 1003.4
20260831100023 60 112 0.0 4.0 0.00 0.00 0.00 48 1003.4
20260831094519 60 119 3.0 7.0 0.00 0.00 0.00 48 1003.4
20260831093020 61 102 2.0 6.0 0.00 0.00 0.00 48 1003.6
20260831091513 61 117 2.0 3.0 0.00 0.00 0.00 47 1003.7
20260831090012 61 117 2.0 5.0 0.00 0.00 0.00 46 1003.6
20260831084508 61 99 0.0 2.0 0.00 0.00 0.00 45 1003.8
20260831083006 61 99 0.0 1.0 0.00 0.00 0.00 44 1004.1
20260831081505 61 99 1.0 2.0 0.00 0.00 0.00 45 1004.1
20260831080118 61 99 0.0 1.0 0.00 0.00 0.00 42 1004.2
20260831074603 62 99 0.0 1.0 0.00 0.00 0.00 41 1004.4
20260831073053 61 102 0.0 0.0 0.00 0.00 0.00 41 1004.3
20260831071557 61 103 0.0 0.0 0.00 0.00 0.00 39 1004.6
20260831070042 61 109 0.0 1.0 0.00 0.00 0.00 40 1004.5
20260831064539 62 109 0.0 0.0 0.00 0.00 0.00 38 1004.5
20260831063036 62 109 0.0 0.0 0.00 0.00 0.00 37 1004.2
20260831061535 62 109 0.0 2.0 0.00 0.00 0.00 38 1004.2
20260831060034 63 109 1.0 3.0 0.00 0.00 0.00 37 1004.4
20260831054532 63 110 2.0 6.0 0.00 0.00 0.00 40 1004.4
20260831053032 63 93 2.0 5.0 0.00 0.00 0.00 39 1004.2
20260831051527 63 110 3.0 6.0 0.00 0.00 0.00 39 1004.2
20260831050025 63 120 0.0 3.0 0.00 0.00 0.00 40 1004.2
20260831044524 63 111 1.0 3.0 0.00 0.00 0.00 42 1004.3
20260831043028 63 114 0.0 3.0 0.00 0.00 0.00 41 1004.1
20260831041520 63 142 1.0 2.0 0.00 0.00 0.00 44 1003.8
20260831040120 63 148 1.0 3.0 0.00 0.00 0.00 45 1003.7
20260831034516 62 141 0.0 2.0 0.00 0.00 0.00 46 1003.6
20260831033018 63 161 1.0 2.0 0.00 0.00 0.00 53 1003.6
20260831031515 62 169 1.0 3.0 0.00 0.00 0.00 52 1003.4
20260831030011 62 154 1.0 3.0 0.00 0.00 0.00 58 1003.0
20260831024519 62 100 1.0 4.0 0.00 0.00 0.00 45 1003.1
20260831023007 62 114 0.0 4.0 0.00 0.00 0.00 54 1003.0
20260831021505 63 94 3.0 7.0 0.00 0.00 0.00 52 1003.0
20260831020003 65 94 4.0 9.0 0.00 0.00 0.00 48 1002.8
20260831014502 67 111 5.0 9.0 0.00 0.00 0.00 46 1002.8
20260831013100 68 105 3.0 11.0 0.00 0.00 0.00 46 1002.9
20260831011558 68 83 6.0 11.0 0.00 0.00 0.00 45 1003.0
20260831010109 69 111 4.0 9.0 0.00 0.00 0.00 45 1003.0
20260831004553 69 84 6.0 14.0 0.00 0.00 0.00 46 1003.2
20260831003103 70 94 6.0 14.0 0.00 0.00 0.00 45 1003.1
20260831001550 71 84 6.0 14.0 0.00 0.00 0.00 45 1003.3
20260831000050 72 90 3.0 11.0 0.00 0.00 0.00 42 1003.3
20260830234552 72 79 5.0 12.0 0.00 0.00 0.00 40 1003.2
20260830233044 72 101 5.0 12.0 0.00 0.00 0.00 39 1003.3
20260830231545 73 57 4.0 12.0 0.00 0.00 0.00 38 1003.4
20260830230046 72 98 5.0 15.0 0.00 0.00 0.00 38 1003.4
20260830224545 72 75 6.0 11.0 0.00 0.00 0.00 38 1003.5
20260830223136 72 70 6.0 14.0 0.00 0.00 0.00 40 1003.7
20260830221538 72 79 4.0 12.0 0.00 0.00 0.00 41 1003.9
20260830220134 72 92 5.0 13.0 0.00 0.00 0.00 40 1003.9
20260830214529 73 48 7.0 15.0 0.00 0.00 0.00 40 1004.1
20260830213028 73 77 3.0 12.0 0.00 0.00 0.00 42 1004.4
20260830211525 74 71 5.0 13.0 0.00 0.00 0.00 41 1004.5